Location: Baia Mare
(47.6567°N, 23.5850°E)
Time: 11:47:23
(UTC+02:00)

ISS - Pass Details

Date: 08 February 2019
Orbit: 404 x 407 km, 51.6° (Epoch: 16 January)

Event Time Altitude Azimuth Distance (km) Brightness Sun altitude
Rises 18:33:49 0° 292° (WNW) 2,327 1.1 -10.0°
Reaches altitude 10° 18:35:58 10° 286° (WNW) 1,464 0.1 -10.3°
Maximum altitude 18:39:05 43° 213° (SSW) 580 -2.7 -10.9°
Drops below altitude 10° 18:42:13 10° 140° (SE) 1,458 -1.3 -11.4°
Enters shadow 18:43:09 - 137° (SE) 1,831 -0.8 -11.5°
